OPS-SAT
1 44878U 19092F 22181.49174148 .00003286 00000-0 15459-3 0 9990
2 44878 97.4794 5.3300 0010890 297.1584 62.8541 15.20223530140170
TO-108
1 44881U 19093C 22181.47674449 .00000425 00000-0 60536-4 0 9991
2 44881 97.8930 260.4987 0015871 139.5252 220.7142 14.81742313136707
FloripaSat 1
1 44885U 19093G 22181.43291515 .00001465 00000-0 18569-3 0 9993
2 44885 97.8970 261.7707 0015303 145.6652 214.5548 14.83184155136775
RS-44
1 44909U 19096E 22181.55975882 .00000031 00000-0 88824-4 0 9992
2 44909 82.5204 221.5684 0216216 289.2081 68.5737 12.79713730117189
BY70-2
1 45857U 20042B 22181.47583582 .00005168 00000-0 68966-3 0 9991
2 45857 97.9551 258.1907 0012272 79.4948 280.7585 14.79956878107382
UPMSat 2
1 46276U 20061E 22181.42283607 .00001665 00000-0 84502-4 0 9991
2 46276 97.3914 251.9507 0003103 110.6206 249.5362 15.18271619100847
AmicalSat
1 46287U 20061R 22181.44410737 .00001818 00000-0 10720-3 0 9991
2 46287 97.4460 250.8730 0001867 189.5749 170.5446 15.12796548100432
SALSAT
1 46495U 20068K 22181.46458751 .00001101 00000-0 82848-4 0 9995
2 46495 97.7294 122.7690 0015278 230.8004 129.1866 15.04553575 96148
BY70-3
1 46839U 20079N 22181.74720009 .00015229 00000-0 35313-3 0 9998
2 46839 97.1981 253.6694 0003765 275.3292 203.9203 15.42489902 92298
CAPE 3
1 47309U 21002A 22181.59572972 .00003411 00000-0 14606-3 0 9997
2 47309 60.6840 315.1104 0022787 344.8018 15.2382 15.24957565 80455
AO-109
1 47311U 21002C 22181.84026552 .00003433 00000-0 14501-3 0 9994
2 47311 60.6863 311.8452 0018695 348.1757 11.8890 15.25470425 80511
MiTEE 1
1 47314U 21002F 22181.84942026 .00006835 00000-0 23870-3 0 9998
2 47314 60.6837 304.8793 0016086 336.8899 23.1466 15.30515473 80646
ExoCube 2
1 47319U 21002L 22181.58052779 .00003375 00000-0 14451-3 0 9992
2 47319 60.6847 313.9132 0020110 348.7376 11.3259 15.25032231 80419
UVSQ-SAT
1 47438U 21006AB 22181.41714975 .00002052 00000-0 11074-3 0 9992
2 47438 97.4362 240.1616 0010823 223.1806 136.8579 15.15817779 79247
YUSAT 1
1 47439U 21006AC 22181.44956280 .00003230 00000-0 17013-3 0 9991
2 47439 97.4369 240.2980 0010616 222.6840 137.3569 15.16271842 79254
SOMP 2b
1 47445U 21006AJ 22181.41813648 .00002209 00000-0 12006-3 0 9997
2 47445 97.4336 239.8179 0010393 227.7800 132.2551 15.15492320 79231
IDEASSat
1 47458U 21006AX 22181.59956654 .00002175 00000-0 11881-3 0 9997
2 47458 97.4425 240.5040 0009616 224.4940 135.5521 15.15332073 79258
Tsuru
1 47927U 98067SD 22181.55613000 .00949203 57046-3 75616-3 0 9993
2 47927 51.6214 230.7092 0011073 355.0213 5.0690 16.13775605 73904
Maya-2
1 47929U 98067SF 22181.51807001 .00752351 32348-3 72721-3 0 9995
2 47929 51.6211 231.2120 0011402 356.2499 3.8428 16.10893557 73859
GuaraniSat-1
1 47931U 98067SH 22181.41439082 .00954683 57956-3 75412-3 0 9991
2 47931 51.6189 231.2664 0010739 354.8700 5.2204 16.13907501 73889
CubeSX-Sirius-HSE
1 47951U 21022V 22181.62639898 .00002660 00000-0 17809-3 0 9990
2 47951 97.5309 80.8710 0023024 99.3495 261.0259 15.07550330 69981
CubeSX-HSE
1 47952U 21022W 22181.81231040 .00002339 00000-0 15695-3 0 9993
2 47952 97.5292 81.0734 0022716 97.9131 262.4666 15.07603325 70016
KSU-Cubesat
1 47954U 21022Y 22181.44277964 .00001596 00000-0 10767-3 0 9998
2 47954 97.5305 80.8163 0022579 99.7339 260.6441 15.07843053 69689
GRBAlpha
1 47959U 21022AD 22181.81025109 .00002387 00000-0 15994-3 0 9992
2 47959 97.5299 81.1084 0022680 98.5504 261.8294 15.07626267 68837
Orbicraft-Zorkiy
1 47960U 21022AE 22181.78370741 .00003732 00000-0 24672-3 0 9993
2 47960 97.5325 81.2205 0022323 99.2856 261.0882 15.07788570 69525
STECCO
1 47962U 21022AG 22181.86241221 .00005195 00000-0 32427-3 0 9996
2 47962 97.5293 82.0028 0017676 93.1623 331.3408 15.09796749 68896
DO-111
1 47963U 21022AH 22180.97282612 .00006606 00000-0 36795-3 0 9997
2 47963 97.5319 82.1890 0019359 89.0043 271.3407 15.13793846 68841
MO-110
1 47964U 21022AJ 22181.29541754 .00002253 00000-0 14135-3 0 9997
2 47964 97.5297 81.7054 0020450 91.6608 268.6964 15.10156942 68826
FEES
1 48082U 21022AL 22181.61979786 .00003837 00000-0 23467-3 0 9992
2 48082 97.5303 81.9488 0016656 87.6575 272.6562 15.10721697 68576
RamSat
1 48850U 98067SL 22181.57229201 .00166852 00000-0 12112-2 0 9994
2 48850 51.6377 250.5319 0003122 7.0843 353.0368 15.72339007 59392
TUBIN
1 48900U 21059X 22181.84064154 .00001757 00000-0 10032-3 0 9993
2 48900 97.5566 311.0336 0011312 63.0078 297.2307 15.14006498 55941
IT-SPINS
1 49017U 21013G 22181.60980806 .00003149 00000-0 13074-3 0 9994
2 49017 51.5997 336.7164 0008742 122.5836 237.5988 15.26824795 55794
LEDSAT
1 49069U 21073D 22181.44857428 .00000978 00000-0 65873-4 0 9994
2 49069 97.5240 254.0811 0025526 248.3442 111.5068 15.08764995 47798
CUTE
1 49263U 21088D 22181.44289776 .00001254 00000-0 96787-4 0 9997
2 49263 97.5893 249.1046 0020696 26.7252 333.5036 15.03201456 41375
Binar-1
1 49272U 98067SR 22181.46109235 .00046423 00000-0 34436-3 0 9990
2 49272 51.6328 255.0094 0007175 348.4293 11.6540 15.72366549 41717
Maya-3
1 49273U 98067SS 22181.32232714 .00127603 00000-0 52096-3 0 9997
2 49273 51.6283 250.2737 0011099 351.6297 8.4520 15.85138666 41767
Maya-4
1 49274U 98067ST 22181.41778296 .00123389 00000-0 53099-3 0 9999
2 49274 51.6311 250.1705 0010233 349.8338 10.2457 15.84067367 41777
CUAVA-1
1 49275U 98067SU 22181.42154238 .00105978 00000-0 60462-3 0 9991
2 49275 51.6341 252.2761 0008189 346.0093 101.9720 15.78048847 41697
TeikyoSat 4
1 49396U 21102B 22181.09383587 .00000548 00000-0 47822-4 0 9998
2 49396 97.5245 238.7594 0013417 212.5814 147.4584 15.00637284 34941
Z-Sat
1 49399U 21102E 22181.61655677 .00000475 00000-0 39986-4 0 9992
2 49399 97.5377 240.0430 0023151 177.8680 182.2648 15.02606899 35067
KOSEN 1
1 49402U 21102H 22181.40350815 .00000375 00000-0 31619-4 0 9994
2 49402 97.5283 239.9607 0022414 172.3148 187.8426 15.03651654 35055
HO-113
1 50466U 21131B 22181.52702059 -.00000003 00000-0 13676-4 0 9994
2 50466 98.5806 258.7748 0005921 108.7275 251.4555 14.38504289 26792
Tevel
1 50999U 22002R 22181.45822054 .00005331 00000-0 28818-3 0 9994
2 50999 97.4810 248.3194 0011616 23.0999 33.9265 15.15050820 25395
Grizu-263a
1 51025U 22002AT 22181.13785858 .00005937 00000-0 30289-3 0 9997
2 51025 97.4973 248.6443 0012735 28.4673 331.7253 15.17044493 25361
NO-116
1 51031U 22002AZ 22181.11473547 .00004251 00000-0 22395-3 0 9998
2 51031 97.4929 248.4221 0013231 27.9046 332.2893 15.16066054 25352
IRIS-A
1 51044U 22002BN 22181.42693964 .00001442 00000-0 84018-4 0 9993
2 51044 97.4817 248.0723 0009761 30.2612 329.9181 15.13546822 25372
DELFI-PQ
1 51074U 22002CU 22181.42305295 .00004108 00000-0 20724-3 0 9998
2 51074 97.5053 249.3616 0014638 55.4015 304.8597 15.17604300 25427
SO-115
1 51080U 22002DA 22181.13809905 .00003675 00000-0 19036-3 0 9992
2 51080 97.5071 249.0042 0014608 56.1187 304.1434 15.16734905 25370
SO-114
1 51081U 22002DB 22179.95112646 .00006106 00000-0 31399-3 0 9997
2 51081 97.5047 247.8062 0014644 60.0268 300.2510 15.16731094 25194
OreSat0
1 52017U 22026K 22181.56957140 .00002287 00000-0 12452-3 0 9994
2 52017 97.5015 181.2464 0025787 225.9043 134.0068 15.15174779 16178
